Flag for Canada Weather past 2 weeks in Greater Sudbury, Ontario, Canada

Now
32 °F

Sunny.


Feels Like: 25 °F
Forecast: N/A
Wind: 8 mph from West

Location: Sudbury

Current Time: Mar 28, 2015 at 7:11:50 PM

Latest Report: Mar 28, 2015 at 6:00 PM


Visibility: 20 mi

Pressure: 30.15 "Hg

Humidity: 23%

Dew point: -2 °F

Location of Greater SudburyLocation

Historic Weather in Greater Sudbury — Graph

°F

Greater Sudbury temperature yesterday

Maximum temperature yesterday: 16 °F (at 5:00 PM)
Minimum temperature yesterday: 0 °F (at 8:00 AM)
Average temperature yesterday: 9 °F

Past Weeks' High & Low Weather Summary

 TemperatureHumidityPressure
High43 °F (Mar 16, 6:00 PM)100% (Mar 14, 1:00 PM)30.47 "Hg (Mar 14, 1:00 PM)
Low-8 °F (Mar 23, 6:00 AM)21% (Mar 18, 4:00 PM)29.67 "Hg (Mar 14, 4:00 PM)
Average21 °F64%30.07 "Hg
* Reported Mar 13 6:00 PM — Mar 28 6:00 PM, Greater Sudbury, Weather by CustomWeather, © 2015

Note: Actual official high and low records may vary slightly from our data, if they occured in-between our weather recording intervals... More about our weather records

Advertising

Greater Sudbury weather history for previous 24 hours

 ConditionsComfort  
Time TempWeatherWind HumidityBarometerVisibility
6:00 PM
Sat, Mar 28
32 °FSunny.8 mph23%30.15 "Hg20 mi
5:00 PM30 °FSunny.10 mph34%30.16 "Hg20 mi
4:00 PM28 °FSunny.9 mph37%30.18 "Hg20 mi
3:00 PM27 °FSunny.6 mph33%30.19 "Hg20 mi
2:00 PM25 °FSunny.9 mph36%30.22 "Hg20 mi
1:00 PM21 °FSunny.5 mph35%30.24 "Hg20 mi
12:00 PM19 °FSunny.3 mph38%30.26 "Hg20 mi
11:00 AM14 °FSunny.5 mph48%30.27 "Hg20 mi
10:00 AM5 °FSunny.3 mph60%30.28 "Hg20 mi
9:00 AM0 °FSunny.6 mph71%30.27 "Hg20 mi
8:00 AM-4 °FClear.7 mph77%30.26 "Hg20 mi
7:00 AM-6 °FClear.8 mph77%30.24 "Hg20 mi
6:00 AM-2 °FClear.5 mph77%30.21 "Hg15 mi
5:00 AM-2 °FClear.7 mph77%30.21 "Hg15 mi
4:00 AM-4 °FClear.6 mph77%30.20 "Hg15 mi
3:00 AM1 °FClear.5 mph71%30.20 "Hg15 mi
2:00 AM3 °FClear.7 mph66%30.20 "Hg15 mi
1:00 AM1 °FClear.6 mph71%30.19 "Hg15 mi
12:00 AM7 °FClear.3 mph56%30.19 "Hg15 mi
11:00 PM
Fri, Mar 27
9 °FClear.9 mph51%30.17 "Hg15 mi
10:00 PM10 °FClear.7 mph47%30.16 "Hg15 mi
9:00 PM10 °FClear.7 mph52%30.15 "Hg15 mi
8:00 PM12 °FSunny.8 mph48%30.14 "Hg20 mi
7:00 PM16 °FSunny.7 mph41%30.12 "Hg20 mi
Weather by CustomWeather, © 2015

See weather overviewHow to use our weather pages